Location: Recife
(8.0585°S, 34.8848°W)
Time: 12:42:13
(UTC-03:00)

Hubble Space Telescope - Pass Details

Date: 30 September 2021
Orbit: 535 x 538 km, 28.5° (Epoch: 21 October)

Event Time Altitude Azimuth Distance (km) Brightness Sun altitude
Exits shadow 03:36:56 69° 197° (SSW) 575 0.7 -22.4°
Maximum altitude 03:37:17 75° 151° (SSE) 556 0.8 -22.3°
Drops below altitude 10° 03:41:24 10° 66° (ENE) 1,779 4.2 -21.3°
Sets 03:43:40 0° 64° (ENE) 2,667 5.3 -20.8°
